Date,TemperatureHighF,TemperatureAvgF,TemperatureLowF,DewpointHighF,DewpointAvgF,DewpointLowF,HumidityHigh,HumidityAvg,HumidityLow,PressureMaxIn,PressureMinIn,WindSpeedMaxMPH,WindSpeedAvgMPH,GustSpeedMaxMPH,PrecipitationSumIn
2013-1-1,27,21,12,23,14,6,84,73,59,29.92,29.78,7,1,7,0.00
2013-1-2,27,21,12,19,15,7,83,78,70,29.95,29.82,8,1,8,0.00
2013-1-3,28,23,15,24,18,10,85,80,74,29.91,29.80,12,3,12,0.00
2013-1-4,30,26,21,24,20,16,84,77,69,29.93,29.77,17,6,17,0.00
2013-1-5,32,26,16,28,21,12,89,83,76,30.04,29.78,10,3,10,0.00
2013-1-6,37,33,31,33,29,26,89,85,79,30.02,29.67,11,3,11,0.01
2013-1-7,35,30,26,27,24,22,84,78,71,30.13,29.91,15,3,15,0.00
2013-1-8,38,28,20,30,23,16,88,81,71,30.00,29.91,8,1,8,0.01
2013-1-9,44,36,24,34,27,21,89,73,49,30.19,29.79,19,5,19,0.00
2013-1-10,44,33,24,34,27,20,86,78,64,30.33,29.95,6,1,6,0.04
2013-1-11,54,42,34,51,40,31,94,90,85,29.95,29.54,10,2,10,0.41
2013-1-12,58,49,43,51,46,41,94,88,78,29.72,29.61,8,2,8,0.00
2013-1-13,49,38,30,47,36,27,94,92,85,29.80,29.49,12,3,12,0.76
2013-1-14,30,24,17,27,19,13,90,79,71,30.18,29.80,16,3,16,0.00
2013-1-15,31,22,13,24,16,10,88,81,71,30.18,29.90,4,0,4,0.00
2013-1-16,36,28,20,26,20,16,87,73,50,29.90,29.56,14,4,14,0.00
2013-1-17,35,29,18,28,20,5,82,70,55,30.05,29.70,14,4,14,0.00
2013-1-18,33,24,12,23,15,6,80,70,59,30.17,29.73,19,3,19,0.00
2013-1-19,47,39,32,34,29,23,74,68,58,29.73,29.33,16,5,19,0.00
2013-1-20,42,23,16,34,11,4,72,60,48,29.92,29.32,28,8,28,0.00
2013-1-21,18,13,3,12,5,-5,81,68,54,29.89,29.69,14,3,14,0.00
2013-1-22,11,5,-2,0,-4,-11,76,67,56,30.01,29.84,15,3,15,0.00
2013-1-23,19,11,2,11,4,-4,80,73,68,30.01,29.81,10,2,10,0.00
2013-1-24,18,12,8,9,4,-2,83,70,51,30.31,29.85,9,2,9,0.00
2013-1-25,26,18,13,18,11,4,82,74,67,30.23,29.76,7,1,7,0.00
2013-1-26,28,22,16,18,14,9,85,74,57,30.19,29.79,7,1,7,0.00
2013-1-27,33,23,12,26,16,7,88,76,62,30.21,29.88,12,2,12,0.00
2013-1-28,44,36,29,41,34,26,93,90,86,29.90,29.61,9,2,9,0.17
2013-1-29,54,44,35,53,42,32,95,93,91,29.78,29.25,10,3,10,0.24
2013-1-30,58,49,32,56,47,28,95,93,86,29.26,28.91,20,4,20,0.17
2013-1-31,32,23,16,29,16,10,87,76,66,29.62,29.01,21,8,21,0.00
2013-2-1,21,15,9,12,8,2,84,75,62,30.00,29.62,18,5,18,0.00
2013-2-2,27,17,9,20,12,4,83,79,76,29.95,29.68,11,2,11,0.00
2013-2-3,27,14,3,19,8,-2,84,78,69,29.74,29.58,12,2,12,0.00
2013-2-4,29,20,16,22,14,9,83,79,72,29.75,29.61,5,1,5,0.00
2013-2-5,31,23,14,24,18,10,88,80,66,29.68,29.54,9,2,9,0.00
2013-2-6,31,23,14,23,16,10,86,76,62,30.03,29.67,8,1,8,0.00
2013-2-7,41,30,24,31,23,18,85,74,63,30.01,29.61,9,2,9,0.03
2013-2-8,28,25,18,26,22,14,91,86,79,30.05,29.51,12,4,12,0.00
2013-2-9,31,19,9,23,14,5,88,82,69,30.14,29.88,8,1,8,0.00
2013-2-10,42,37,34,33,30,27,87,76,66,29.80,29.48,7,3,7,0.07
2013-2-11,43,36,31,41,31,25,92,79,69,29.64,29.34,21,8,21,0.06
2013-2-12,35,31,28,26,24,21,81,75,68,29.82,29.64,18,5,18,0.01
2013-2-13,38,30,26,28,23,20,83,75,63,29.70,29.51,8,2,8,0.00
2013-2-14,39,33,25,34,29,21,89,84,77,29.61,29.46,21,4,21,0.00
2013-2-15,34,28,23,28,18,13,80,67,53,29.87,29.60,14,3,14,0.00
2013-2-16,30,21,13,21,14,9,83,74,62,29.87,29.73,12,1,12,0.00
2013-2-17,23,15,8,11,7,3,85,70,54,29.96,29.80,10,2,10,0.00
2013-2-18,42,29,11,34,21,4,79,71,60,29.96,29.39,11,3,11,0.00
2013-2-19,42,29,18,38,23,10,90,79,70,29.69,29.20,20,8,20,0.01
2013-2-20,23,20,16,15,11,8,78,71,61,29.99,29.68,19,6,19,0.00
2013-2-21,26,21,19,17,14,13,82,73,64,30.14,29.98,10,3,10,0.00
2013-2-22,32,27,22,30,24,17,92,86,81,30.03,29.66,10,2,10,0.00
2013-2-23,38,31,25,30,24,18,90,77,63,29.69,29.64,11,3,11,0.00
2013-2-24,38,29,22,29,22,16,85,76,63,29.92,29.66,10,3,10,0.00
2013-2-25,41,31,18,30,23,14,87,72,58,29.99,29.87,5,1,5,0.00
2013-2-26,36,31,26,31,26,19,93,81,67,29.90,29.30,14,4,14,0.03
2013-2-27,37,34,32,35,32,30,94,93,92,29.36,29.23,5,1,5,0.03
2013-2-28,37,33,29,33,29,24,94,87,79,29.73,29.32,12,3,12,0.17
2013-3-1,29,26,24,24,21,19,84,81,78,29.87,29.72,10,3,10,0.00
2013-3-2,27,24,23,21,19,17,83,79,74,29.84,29.81,8,2,8,0.00
2013-3-3,31,21,17,19,15,12,82,77,62,29.82,29.75,7,2,7,0.00
2013-3-4,34,22,12,21,14,8,84,72,54,29.91,29.81,6,1,6,0.00
2013-3-5,35,27,18,25,20,11,85,75,64,29.90,29.61,0,0,0,0.00
2013-3-6,43,33,26,34,27,21,86,79,66,29.97,29.62,0,0,0,0.05
2013-3-7,37,33,25,30,27,18,88,78,65,30.16,29.96,0,0,0,0.02
2013-3-8,44,31,20,30,23,16,82,71,57,30.26,30.16,0,0,0,0.01
2013-3-9,45,36,23,35,28,20,87,74,60,30.19,29.76,0,0,0,0.01
2013-3-10,62,48,34,48,38,29,81,68,54,29.76,29.53,0,0,0,0.00
2013-3-11,53,48,37,46,42,32,90,80,65,29.55,29.21,0,0,0,0.02
2013-3-12,39,34,28,32,29,23,85,80,73,29.63,29.41,0,0,0,0.02
2013-3-13,32,29,25,26,21,14,87,72,56,29.88,29.56,0,0,0,0.00
2013-3-14,39,30,20,23,18,13,77,62,46,29.96,29.79,0,0,0,0.00
2013-3-15,40,34,29,33,27,19,88,76,62,29.79,29.56,0,0,0,0.03
2013-3-16,34,29,24,30,25,18,90,84,73,29.74,29.48,0,0,0,0.01
2013-3-17,31,26,20,23,16,12,82,68,54,29.97,29.73,0,0,0,0.00
2013-3-18,34,29,20,32,25,13,92,84,74,29.90,29.27,0,0,0,0.01
2013-3-19,34,27,23,30,20,17,88,75,62,29.64,29.32,0,0,0,0.00
2013-3-20,31,24,17,20,15,10,73,67,58,29.64,29.59,0,0,0,0.00
2013-3-21,33,24,15,26,17,9,84,76,65,29.63,29.55,0,0,0,0.00
2013-3-22,38,31,25,25,20,17,74,65,53,29.73,29.63,0,0,0,0.00
2013-3-23,39,30,22,27,22,17,84,71,57,29.81,29.72,0,0,0,0.00
2013-3-24,67,29,23,43,21,17,85,72,42,29.79,29.58,19,3,19,0.02
2013-3-25,39,34,30,28,24,22,77,69,59,29.86,29.51,19,5,19,0.00
2013-3-26,42,36,32,31,28,26,83,72,53,30.05,29.85,15,3,15,0.00
2013-3-27,45,38,29,30,25,22,83,62,41,30.14,30.05,20,4,20,0.00
2013-3-28,51,40,30,26,24,20,77,54,33,30.20,30.14,15,3,15,0.00
2013-3-29,53,41,30,25,21,18,69,47,27,30.23,30.13,10,2,11,0.00
2013-3-30,55,43,30,28,22,14,71,46,22,30.16,29.87,15,2,15,0.00
2013-3-31,57,45,36,42,34,27,87,65,37,29.87,29.55,23,3,23,0.02
2013-4-1,42,32,26,32,16,10,83,54,34,30.04,29.61,21,5,22,0.00
2013-4-2,40,30,22,19,13,9,83,51,30,30.20,30.04,22,4,22,0.00
2013-4-3,41,32,24,20,13,8,68,47,28,30.39,30.20,16,2,17,0.00
2013-4-4,55,40,26,21,16,12,73,41,19,30.32,29.89,15,3,16,0.00
2013-4-5,46,41,31,30,20,14,79,47,29,30.15,29.88,13,2,14,0.00
2013-4-6,50,38,28,26,21,14,78,51,31,30.20,29.74,16,3,17,0.00
2013-4-7,57,50,39,45,35,24,76,59,36,29.96,29.55,28,6,30,0.00
2013-4-8,64,45,34,55,40,30,93,81,55,29.98,29.64,25,3,25,0.13
2013-4-9,50,45,40,45,42,38,94,89,77,30.03,29.82,12,2,16,0.01
2013-4-10,46,41,38,44,40,36,97,95,91,29.96,29.77,14,3,15,0.38
2013-4-11,39,37,35,37,35,34,97,95,93,29.93,29.58,21,5,21,1.10
2013-4-12,41,38,34,40,35,32,97,90,76,29.71,29.46,20,3,20,0.34
2013-4-13,41,38,34,37,31,26,92,75,58,29.93,29.71,21,5,21,0.03
2013-4-14,47,38,33,38,32,27,88,77,68,30.07,29.89,9,1,9,0.01
2013-4-15,68,54,37,55,45,33,90,73,54,29.92,29.81,21,3,21,0.04
2013-4-16,62,54,47,54,43,33,95,70,40,30.15,29.79,13,3,16,0.03
2013-4-17,57,47,39,43,35,30,94,65,42,30.27,29.96,11,4,12,0.76
2013-4-18,78,58,43,65,54,41,96,88,61,29.98,29.49,32,5,32,0.47
2013-4-19,58,45,35,57,39,28,98,81,62,29.67,29.23,29,7,30,0.39
2013-4-20,38,34,29,31,22,16,93,63,45,30.40,29.67,23,5,24,0.00
2013-4-21,47,36,24,29,24,19,95,63,42,30.58,30.40,13,2,13,0.00
2013-4-22,61,46,30,35,28,18,94,55,20,30.43,30.13,12,1,12,0.00
2013-4-23,70,55,41,53,41,32,96,63,37,30.14,29.73,23,3,25,0.15
2013-4-24,54,40,34,53,37,27,97,90,70,30.07,29.65,17,3,17,0.56
2013-4-25,50,41,32,40,31,26,90,69,41,30.29,30.05,18,4,18,0.04
2013-4-26,58,46,31,38,32,27,89,59,38,30.41,30.27,14,2,14,0.00
2013-4-27,68,54,38,41,36,28,94,56,24,30.31,30.04,13,2,13,0.00
2013-4-28,55,52,48,53,45,32,98,80,48,30.04,29.76,8,1,8,0.34
2013-4-29,69,59,52,55,53,51,99,82,55,29.87,29.76,8,1,8,0.01
2013-4-30,71,61,52,58,54,51,96,79,58,30.01,29.85,17,3,18,0.08
2013-5-1,80,66,51,59,54,50,97,68,41,30.15,29.99,13,2,13,0.00
2013-5-2,78,66,54,57,50,44,81,57,39,30.16,30.04,10,2,15,0.00
2013-5-3,78,66,55,55,43,30,60,45,20,30.05,29.97,12,2,12,0.00
2013-5-4,70,62,54,48,42,36,72,50,32,30.04,29.97,13,2,13,0.00
2013-5-5,71,62,51,45,39,30,73,45,23,30.03,29.93,12,2,12,0.00
2013-5-6,73,62,50,50,42,37,67,50,38,29.99,29.90,11,2,11,0.00
2013-5-7,74,64,51,54,46,37,67,53,36,29.98,29.90,13,1,13,0.00
2013-5-8,80,66,56,56,49,42,83,56,33,29.93,29.84,12,1,12,0.00
2013-5-9,80,67,52,56,50,41,93,58,27,29.88,29.80,11,1,11,0.00
2013-5-10,69,57,42,61,52,38,97,83,53,29.82,29.65,16,2,16,0.29
2013-5-11,60,47,38,46,41,32,94,80,52,29.83,29.66,22,3,22,0.00
2013-5-12,47,40,33,34,29,24,88,66,47,30.03,29.80,22,4,22,0.00
2013-5-13,53,42,30,31,25,21,81,55,30,30.12,30.03,13,1,13,0.00
2013-5-14,76,56,42,51,40,30,85,56,37,30.06,29.66,16,2,16,0.00
2013-5-15,80,69,52,59,50,45,94,55,30,29.69,29.51,19,3,23,0.01
2013-5-16,80,68,54,51,45,38,70,46,27,29.93,29.69,13,2,13,0.00
2013-5-17,72,60,48,47,42,38,73,53,36,30.07,29.93,9,1,9,0.00
2013-5-18,79,66,55,49,45,41,67,48,31,30.07,29.94,9,1,9,0.00
2013-5-19,84,70,54,64,56,45,79,61,46,29.96,29.78,8,1,8,0.00
2013-5-20,89,75,60,72,64,58,95,71,41,29.84,29.67,18,2,19,0.00
2013-5-21,83,76,66,68,63,59,91,66,45,29.72,29.60,21,3,21,0.02
2013-5-22,80,69,62,65,62,59,95,81,50,29.64,29.52,23,3,23,0.20
2013-5-23,63,52,42,60,50,38,97,92,84,30.07,29.58,21,3,21,0.19
2013-5-24,54,45,38,40,36,32,94,71,48,30.30,30.07,15,2,15,0.00
2013-5-25,64,50,34,40,36,31,95,61,35,30.35,30.22,11,1,11,0.00
2013-5-26,68,55,39,40,36,30,92,53,27,30.28,30.16,10,1,10,0.00
2013-5-27,62,51,41,50,42,33,97,74,37,30.20,29.95,9,1,9,0.51
2013-5-28,74,61,50,70,59,50,98,94,81,29.95,29.73,15,1,15,0.21
2013-5-29,82,74,66,67,65,61,92,75,51,29.89,29.68,16,3,17,0.00
2013-5-30,86,74,66,75,67,61,94,79,55,29.96,29.86,20,2,20,0.11
2013-5-31,80,71,66,70,67,64,98,86,65,29.90,29.75,16,3,17,0.21
2013-6-1,79,70,63,68,64,62,98,83,61,29.75,29.59,19,3,19,0.21
2013-6-2,70,64,52,64,56,44,91,77,62,29.89,29.55,16,3,16,0.00
2013-6-3,66,55,41,46,41,35,92,61,39,30.01,29.89,12,1,12,0.00
2013-6-4,72,60,46,49,43,31,92,58,38,30.13,30.01,7,1,7,0.00
2013-6-5,73,62,49,49,42,31,70,50,32,30.11,29.91,8,1,8,0.00
2013-6-6,66,60,56,55,48,42,78,66,58,29.92,29.78,13,2,13,0.00
2013-6-7,61,56,50,54,51,48,95,84,76,29.84,29.78,9,1,9,0.00
2013-6-8,72,62,56,55,52,50,85,71,49,30.00,29.83,5,0,6,0.00
2013-6-9,77,66,55,61,55,51,91,68,52,30.04,29.87,11,1,11,0.00
2013-6-10,71,65,59,68,63,53,98,94,64,29.88,29.64,5,0,5,1.45
2013-6-11,80,71,63,66,64,62,98,81,58,29.80,29.67,10,1,10,0.00
2013-6-12,75,70,62,69,65,60,96,85,76,29.83,29.54,7,0,8,0.79
2013-6-13,76,68,60,64,59,54,98,75,49,29.83,29.45,17,2,17,1.03
2013-6-14,75,66,58,58,54,48,87,66,43,29.99,29.83,15,2,15,0.00
2013-6-15,78,67,57,63,58,53,91,75,51,30.00,29.83,12,2,12,0.00
2013-6-16,80,70,64,66,61,50,97,75,37,29.84,29.67,12,3,12,0.34
2013-6-17,84,73,62,64,58,54,82,62,37,29.83,29.72,11,2,11,0.00
2013-6-18,70,63,54,59,52,42,96,69,43,30.00,29.78,15,2,15,0.08
2013-6-19,75,63,50,55,48,39,81,58,38,30.10,29.99,6,1,6,0.00
2013-6-20,80,67,51,58,53,49,95,65,38,30.14,30.05,9,1,10,0.00
2013-6-21,86,72,57,67,59,52,87,66,43,30.12,29.95,12,1,12,0.00
2013-6-22,86,76,67,74,67,59,90,74,63,30.00,29.88,12,2,12,0.04
2013-6-23,88,79,68,70,68,66,93,71,51,29.96,29.86,15,3,15,0.00
2013-6-24,86,76,66,72,68,63,93,75,56,29.95,29.81,13,2,14,0.00
2013-6-25,83,73,67,73,68,63,96,84,66,29.88,29.72,13,2,14,0.36
2013-6-26,84,74,65,72,68,64,98,83,62,29.79,29.64,11,1,11,0.11
2013-6-27,85,72,65,73,68,63,98,89,60,29.66,29.52,12,1,14,1.26
2013-6-28,76,67,63,68,64,60,99,93,69,29.54,29.42,10,1,10,0.43
2013-6-29,76,67,62,65,62,57,98,84,62,29.64,29.45,12,2,12,0.01
2013-6-30,78,69,60,62,58,46,92,70,49,29.85,29.64,16,2,16,0.00
2013-7-1,67,62,59,60,55,46,94,77,55,29.98,29.85,12,2,12,0.29
2013-7-2,74,66,59,64,60,54,90,80,68,29.99,29.93,12,1,12,0.00
2013-7-3,82,70,59,70,64,57,97,81,57,30.01,29.95,10,1,11,0.00
2013-7-4,79,73,68,68,66,62,95,78,61,30.03,29.97,9,1,9,0.00
2013-7-5,84,75,69,70,66,60,97,76,44,30.01,29.94,8,1,8,0.00
2013-7-6,84,75,68,72,69,66,97,83,61,30.01,29.89,7,1,8,0.06
2013-7-7,81,74,70,70,69,65,97,84,60,29.93,29.85,9,2,9,0.00
2013-7-8,82,73,68,75,69,65,97,89,76,29.94,29.86,14,1,15,0.35
2013-7-9,87,76,71,74,71,69,99,86,59,29.89,29.77,16,1,16,0.02
2013-7-10,88,77,65,75,70,58,99,79,55,29.84,29.66,18,2,19,0.21
2013-7-11,76,68,59,59,56,53,89,66,47,29.97,29.84,12,2,13,0.00
2013-7-12,81,69,55,64,58,54,97,71,46,30.07,29.97,6,1,6,0.00
2013-7-13,86,73,62,66,61,54,92,68,38,30.12,30.04,6,0,6,0.00
2013-7-14,90,78,65,72,68,62,97,74,49,30.16,30.11,6,0,6,0.00
2013-7-15,92,79,70,78,73,68,98,83,57,30.19,30.11,7,0,7,0.89
2013-7-16,89,81,74,79,76,73,98,84,66,30.20,30.13,7,1,8,0.01
2013-7-17,93,83,75,78,75,72,91,78,58,30.17,30.04,9,1,9,0.00
2013-7-18,91,83,74,77,74,69,92,74,52,30.05,29.84,10,2,11,0.00
2013-7-19,92,83,76,76,73,65,92,73,49,29.86,29.60,16,4,16,0.07
2013-7-20,84,77,68,75,65,57,97,70,43,29.82,29.61,14,1,14,0.17
2013-7-21,81,73,63,66,61,54,88,67,48,29.90,29.80,6,1,6,0.00
2013-7-22,80,74,67,70,65,62,89,75,57,29.86,29.66,8,0,8,0.00
2013-7-23,81,70,60,73,65,52,97,85,66,29.77,29.57,15,2,15,0.53
2013-7-24,70,63,56,55,51,48,82,66,52,29.96,29.77,15,2,15,0.00
2013-7-25,76,65,50,58,53,49,97,69,43,30.03,29.96,7,1,7,0.00
2013-7-26,78,68,58,61,58,54,88,70,50,30.02,29.81,11,1,13,0.00
2013-7-27,73,65,55,67,62,51,96,90,74,29.82,29.63,11,1,11,0.33
2013-7-28,64,57,50,54,52,48,95,83,65,29.90,29.74,15,2,15,0.01
2013-7-29,68,61,56,57,54,52,89,80,66,30.10,29.89,8,2,8,0.00
2013-7-30,73,61,53,62,57,52,98,87,62,30.13,30.04,5,0,5,0.00
2013-7-31,76,67,62,67,64,60,97,90,68,30.04,29.78,8,0,8,0.33
2013-8-1,76,67,62,64,61,56,97,82,54,29.82,29.77,9,1,11,0.01
2013-8-2,74,65,57,64,59,54,94,82,61,29.84,29.75,18,2,18,0.00
2013-8-3,77,68,59,64,58,53,98,72,46,29.95,29.80,11,1,11,0.00
2013-8-4,72,63,54,57,54,51,95,73,54,30.07,29.96,13,1,13,0.00
2013-8-5,72,64,56,59,54,51,88,72,53,30.04,29.89,7,1,9,0.00
2013-8-6,77,68,62,67,63,58,97,84,67,29.89,29.80,12,1,12,0.06
2013-8-7,69,66,64,66,64,62,98,93,84,29.81,29.75,11,1,12,0.00
2013-8-8,70,68,65,62,61,60,83,79,71,29.89,29.86,7,1,8,0.00
2013-8-9,79,69,59,62,58,54,90,69,46,29.91,29.84,9,1,9,0.00
2013-8-10,76,68,60,62,59,55,94,73,53,30.04,29.91,9,1,9,0.00
2013-8-11,78,68,56,63,58,54,95,73,49,30.04,29.94,8,1,10,0.00
2013-8-12,70,66,63,68,63,60,98,92,78,29.96,29.76,8,1,9,0.95
2013-8-13,66,61,54,64,53,46,98,76,50,29.97,29.74,13,1,13,0.00
2013-8-14,69,59,49,54,49,46,92,73,48,30.09,29.96,11,1,11,0.00
2013-8-15,72,62,51,56,52,46,95,71,41,30.10,30.01,8,1,10,0.00
2013-8-16,77,66,55,59,55,52,93,69,45,30.12,30.03,8,1,8,0.00
2013-8-17,80,67,56,60,56,48,93,69,37,30.19,30.09,8,0,8,0.00
2013-8-18,82,69,58,66,59,56,98,73,43,30.13,30.02,4,0,7,0.00
2013-8-19,81,70,57,62,58,47,93,67,34,30.03,29.94,11,1,11,0.00
2013-8-20,84,74,64,67,63,58,87,70,50,30.05,29.97,9,1,10,0.00
2013-8-21,84,76,66,70,67,63,89,74,59,30.04,29.89,14,2,14,0.00
2013-8-22,82,74,69,69,67,66,92,79,59,29.94,29.84,7,1,7,0.00
2013-8-23,80,71,60,67,56,47,92,62,33,30.12,29.93,10,1,10,0.00
2013-8-24,81,68,57,65,58,55,98,73,43,30.22,30.11,7,0,7,0.00
2013-8-25,85,72,56,66,61,55,98,72,46,30.21,30.05,13,2,14,0.00
2013-8-26,87,77,69,74,68,62,91,72,60,30.06,29.86,12,3,12,0.01
2013-8-27,82,76,70,76,72,68,98,90,77,29.89,29.73,9,1,9,0.47
2013-8-28,81,76,70,74,72,68,98,89,71,29.90,29.67,22,2,22,0.17
2013-8-29,86,75,65,72,69,64,97,82,54,29.97,29.89,6,1,6,0.00
2013-8-30,85,76,66,72,69,65,99,81,58,29.90,29.63,15,2,15,0.21
2013-8-31,79,72,68,71,69,64,98,91,70,29.74,29.64,9,1,9,0.00
2013-9-1,80,71,66,72,68,64,97,88,73,29.75,29.62,5,0,6,0.03
2013-9-2,75,68,59,70,62,52,96,81,61,29.82,29.61,11,2,11,0.00
2013-9-3,73,63,57,57,54,52,88,74,54,29.93,29.81,11,1,11,0.00
2013-9-4,79,68,57,64,59,53,92,75,52,29.99,29.91,12,2,12,0.00
2013-9-5,69,62,52,63,52,46,94,72,46,30.18,29.97,8,1,11,0.00
2013-9-6,68,52,46,51,46,41,97,82,42,30.21,30.17,7,0,7,0.00
2013-9-7,79,73,69,70,67,65,94,82,63,29.90,29.80,7,1,9,0.07
2013-9-8,72,67,56,67,58,50,93,75,51,29.99,29.83,11,2,11,0.00
2013-9-9,73,63,52,69,60,50,96,90,77,29.98,29.82,6,0,6,0.07
2013-9-10,92,81,68,74,70,65,97,72,41,29.91,29.80,14,3,14,0.00
2013-9-11,88,76,68,74,68,66,97,78,58,29.91,29.83,10,2,11,0.31
2013-9-12,76,67,55,67,61,50,98,83,49,29.86,29.73,16,1,16,0.32
2013-9-13,60,53,43,50,44,39,91,73,54,30.06,29.86,14,2,20,0.00
2013-9-14,66,53,40,48,42,35,96,72,35,30.13,30.02,7,1,8,0.00
2013-9-15,62,55,50,54,50,46,97,83,64,30.06,29.99,8,0,9,0.07
2013-9-16,61,55,45,54,49,41,97,82,58,30.31,30.05,12,2,12,0.00
2013-9-17,67,52,39,52,45,38,98,78,51,30.34,30.16,6,0,6,0.00
2013-9-18,74,60,46,58,52,44,98,78,47,30.16,29.96,10,1,10,0.00
2013-9-19,78,67,58,69,63,57,98,88,70,29.97,29.83,10,1,10,0.00
2013-9-20,80,71,66,72,68,66,98,91,71,29.83,29.63,12,2,12,0.24
2013-9-21,67,61,54,66,55,44,98,82,54,29.78,29.57,14,1,14,0.03
2013-9-22,57,52,45,46,43,40,91,72,59,30.02,29.78,9,1,12,0.00
2013-9-23,60,50,40,46,43,38,97,78,56,30.13,30.02,7,0,7,0.00
2013-9-24,67,53,42,51,46,41,99,81,54,30.09,29.93,5,0,5,0.00
2013-9-25,70,57,47,55,50,45,98,79,49,29.95,29.88,6,0,6,0.00
2013-9-26,74,60,48,55,50,46,99,73,42,30.07,29.93,8,1,8,0.00
2013-9-27,75,60,49,58,54,48,99,80,50,30.16,30.07,8,0,8,0.00
2013-9-28,76,63,52,61,56,52,99,80,47,30.12,29.93,10,1,10,0.00
2013-9-29,62,60,58,62,57,54,98,92,83,29.94,29.87,8,1,8,0.11
2013-9-30,70,61,56,58,56,50,99,84,50,29.94,29.84,11,1,12,0.01
2013-10-1,70,61,53,63,58,52,98,90,77,29.94,29.85,13,2,14,0.00
2013-10-2,76,66,56,61,54,44,97,69,33,30.00,29.86,8,1,9,0.00
2013-10-3,76,65,54,68,60,48,98,84,73,29.98,29.84,11,1,12,0.00
2013-10-4,78,70,64,69,66,63,98,87,71,29.93,29.85,10,1,10,0.01
2013-10-5,72,67,64,69,66,63,99,95,87,29.95,29.77,7,0,7,0.33
2013-10-6,69,64,54,68,63,53,99,95,86,29.77,29.52,21,2,21,0.16
2013-10-7,58,51,44,53,47,42,98,86,64,30.05,29.59,15,3,15,0.00
2013-10-8,66,54,46,48,44,42,92,73,46,30.22,30.05,9,1,9,0.00
2013-10-9,70,55,44,55,47,43,99,78,48,30.25,30.15,8,0,8,0.00
2013-10-10,70,56,47,54,47,43,99,77,38,30.16,30.06,5,0,5,0.00
2013-10-11,71,56,44,51,46,42,97,73,40,30.09,30.00,5,0,5,0.00
2013-10-12,76,61,50,62,55,45,99,83,34,30.03,29.96,8,1,8,0.00
2013-10-13,66,59,48,60,47,37,98,69,36,30.26,30.00,9,1,9,0.00
2013-10-14,63,52,45,46,44,41,95,75,48,30.34,30.20,8,1,8,0.00
2013-10-15,64,53,42,60,51,41,99,93,78,30.21,29.76,10,1,11,0.05
2013-10-16,62,56,51,61,51,45,98,85,64,29.83,29.73,14,4,14,0.00
2013-10-17,52,49,46,49,47,44,96,92,87,29.82,29.68,10,2,10,0.20
2013-10-18,62,50,41,47,43,39,97,78,45,29.85,29.77,14,2,14,0.00
2013-10-19,47,43,39,42,40,37,96,91,81,29.83,29.67,13,2,13,0.21
2013-10-20,57,47,37,45,40,36,97,79,52,29.85,29.77,18,2,19,0.00
2013-10-21,54,49,40,48,43,34,94,80,67,29.79,29.72,17,3,18,0.09
2013-10-22,48,41,33,37,31,28,85,70,51,29.85,29.76,10,2,13,0.00
2013-10-23,46,38,31,35,31,23,97,77,43,29.87,29.75,10,1,10,0.00
2013-10-24,46,37,31,34,31,27,94,80,50,30.11,29.86,12,2,12,0.00
2013-10-25,45,37,31,36,31,28,96,80,56,30.27,30.05,12,3,12,0.00
2013-10-26,49,42,37,39,33,28,95,70,57,30.05,29.71,17,4,17,0.09
2013-10-27,51,41,34,36,33,31,94,75,51,30.01,29.92,12,2,13,0.00
2013-10-28,50,42,36,41,34,31,85,74,64,30.34,29.98,10,2,10,0.00
2013-10-29,49,42,37,38,34,29,83,73,57,30.38,30.19,7,1,7,0.00
2013-10-30,62,48,35,50,41,33,99,80,52,30.19,29.89,6,0,6,0.17
2013-10-31,62,58,51,61,58,50,99,97,95,29.91,29.08,22,4,24,1.07
2013-11-1,60,49,45,59,44,40,97,84,72,29.59,29.02,26,6,26,0.01
2013-11-2,46,43,35,44,41,32,97,93,83,30.04,29.57,11,2,11,0.22
2013-11-3,43,36,30,36,32,29,98,87,67,30.40,30.03,6,0,6,0.00
2013-11-4,48,40,30,37,32,28,96,76,47,30.43,30.26,9,1,10,0.00
2013-11-5,52,48,41,48,43,36,92,84,75,30.30,30.10,9,1,9,0.00
2013-11-6,55,51,42,52,47,38,95,85,68,30.11,29.72,20,4,20,0.17
2013-11-7,44,39,33,38,31,25,95,76,51,30.07,29.90,17,3,17,0.03
2013-11-8,44,35,30,33,29,26,95,78,51,30.23,30.05,9,2,10,0.00
2013-11-9,56,46,35,42,36,29,84,68,56,30.13,29.74,23,5,23,0.00
2013-11-10,47,42,35,40,32,29,86,66,55,30.20,29.83,20,4,20,0.00
2013-11-11,41,35,27,38,31,20,95,84,74,30.25,29.96,14,3,15,0.13
2013-11-12,33,27,22,22,19,16,84,71,52,30.50,30.25,16,3,16,0.00
2013-11-13,40,30,20,24,18,10,88,64,30,30.50,30.11,18,4,18,0.00
2013-11-14,49,38,28,28,22,18,70,53,41,30.12,29.93,12,5,19,0.00
2013-11-15,50,42,35,32,28,24,73,57,44,30.01,29.93,13,3,13,0.00
2013-11-16,56,45,34,53,41,31,92,86,72,30.05,29.74,18,3,18,0.00
2013-11-17,62,57,47,59,54,40,96,90,70,29.74,29.15,38,7,39,0.62
2013-11-18,47,40,34,41,31,23,82,71,64,30.06,29.37,33,8,33,0.00
2013-11-19,41,34,27,26,23,21,88,66,47,30.36,30.06,16,2,16,0.00
2013-11-20,46,35,25,33,27,22,95,74,41,30.40,30.19,12,2,15,0.00
2013-11-21,47,43,38,43,38,28,98,83,69,30.24,30.11,20,2,20,0.26
2013-11-22,44,39,27,44,37,24,98,92,81,30.30,30.06,12,2,19,0.06
2013-11-23,28,23,16,25,17,9,92,76,51,30.47,30.21,16,4,22,0.00
2013-11-24,24,18,13,14,10,8,85,73,52,30.56,30.39,16,3,18,0.00
2013-11-25,30,24,18,25,16,10,86,71,56,30.39,30.05,18,5,19,0.00
2013-11-26,33,30,28,28,27,24,91,86,80,30.07,29.88,12,2,12,0.00
2013-11-27,28,23,18,24,14,10,89,71,56,30.15,29.86,19,4,19,0.00
2013-11-28,27,22,16,21,16,11,90,79,65,30.39,30.15,10,1,10,0.00
2013-11-29,33,23,14,24,18,12,95,81,58,30.63,30.39,6,0,6,0.00
2013-11-30,44,33,25,30,26,21,86,75,56,30.52,30.05,13,2,13,0.00
2013-12-1,43,35,30,35,31,26,94,83,71,30.05,29.93,9,2,10,0.00
2013-12-2,37,33,28,31,26,22,92,77,55,29.94,29.83,7,1,8,0.00
2013-12-3,37,33,27,36,31,23,96,91,80,29.86,29.80,6,1,7,0.03
2013-12-4,54,45,37,51,44,36,97,93,88,29.85,29.56,9,2,11,0.03
2013-12-5,58,42,29,55,36,22,93,77,66,30.08,29.54,23,6,26,0.00
2013-12-6,29,25,19,22,18,13,78,72,68,30.36,30.05,11,3,11,0.00
2013-12-7,24,19,14,13,10,8,80,68,54,30.58,30.35,13,2,13,0.00
2013-12-8,28,19,11,27,14,7,95,82,67,30.57,29.96,11,2,14,0.00
2013-12-9,29,26,19,28,21,12,96,84,70,30.05,29.83,22,6,22,0.00
2013-12-10,21,17,10,17,9,0,87,71,47,30.15,29.91,24,5,24,0.00
2013-12-11,22,17,6,17,11,1,88,78,69,30.42,30.14,11,4,13,0.00
2013-12-12,20,12,3,14,5,-1,88,74,45,30.42,30.15,20,4,20,0.00
2013-12-13,27,23,20,21,18,14,84,80,73,30.25,30.11,15,3,15,0.00
2013-12-14,21,18,16,19,15,11,94,90,72,30.24,29.77,14,4,15,0.00
2013-12-15,24,19,14,22,15,9,94,87,73,29.99,29.76,24,4,24,0.00
2013-12-16,23,14,8,13,9,5,91,80,58,30.15,29.97,9,2,9,0.00
2013-12-17,26,21,14,24,19,12,94,90,84,29.97,29.84,14,3,14,0.00
2013-12-18,30,25,21,24,21,15,94,84,70,30.07,29.86,16,4,17,0.00
2013-12-19,40,33,24,34,27,17,95,81,71,29.95,29.82,10,1,10,0.13
2013-12-20,37,34,32,37,34,32,98,98,95,29.86,29.67,5,1,5,0.40
2013-12-21,34,33,32,33,32,31,98,97,96,29.81,29.60,11,2,11,0.70
2013-12-22,35,33,32,34,32,31,98,96,91,29.90,29.48,7,2,11,0.29
2013-12-23,32,27,20,31,23,13,96,85,71,30.25,29.90,13,3,14,0.00
2013-12-24,20,13,7,13,8,5,93,79,64,30.51,30.24,12,3,14,0.00
2013-12-25,24,18,8,22,15,5,93,88,80,30.47,30.08,16,2,16,0.00
2013-12-26,27,25,23,24,20,16,94,84,71,30.24,29.99,17,3,18,0.00
2013-12-27,38,32,23,32,28,21,95,86,75,30.27,30.01,14,3,15,0.04
2013-12-28,47,40,34,37,33,30,86,77,64,30.06,29.83,15,4,15,0.00
2013-12-29,41,34,20,33,28,15,94,81,69,29.94,29.62,15,3,15,0.00
2013-12-30,20,18,14,16,9,4,82,69,60,30.22,29.94,14,2,14,0.00
2013-12-31,19,16,14,15,10,6,89,79,66,30.29,30.01,13,4,18,0.00
2014-1-1,15,12,10,12,9,5,91,86,78,30.37,30.20,10,2,10,0.00
2014-1-2,14,11,2,12,7,-4,91,86,75,30.25,30.05,19,5,19,0.00